Time,TemperatureF,DewpointF,PressureIn,WindDirection,WindDirectionDegrees,WindSpeedMPH,WindSpeedGustMPH,Humidity,HourlyPrecipIn,Conditions,Clouds,dailyrainin,SoftwareType,DateUTC
2013-07-09 00:02:00,75.0,72.0,29.93,SW,234,0.0,1.0,89,0.00,,,0.09,,2013-07-09 04:02:00,
2013-07-09 00:11:00,75.0,71.0,29.93,SW,234,0.0,1.0,88,0.00,,,0.09,,2013-07-09 04:11:00,
2013-07-09 00:22:00,75.0,71.0,29.94,SW,234,0.0,2.0,88,0.00,,,0.09,,2013-07-09 04:22:00,
2013-07-09 00:34:00,75.0,71.0,29.94,SW,234,0.0,2.0,88,0.00,,,0.09,,2013-07-09 04:34:00,
2013-07-09 00:43:00,75.0,71.0,29.93,SW,234,0.0,2.0,87,0.00,,,0.09,,2013-07-09 04:43:00,
2013-07-09 00:53:00,75.0,71.0,29.93,WSW,248,0.0,1.0,88,0.00,,,0.09,,2013-07-09 04:53:00,
2013-07-09 01:02:00,75.0,71.0,29.93,WSW,252,0.0,4.0,88,0.00,,,0.09,,2013-07-09 05:02:00,
2013-07-09 01:12:00,75.0,71.0,29.93,WSW,252,0.0,4.0,88,0.00,,,0.09,,2013-07-09 05:12:00,
2013-07-09 01:33:00,75.0,72.0,29.93,West,267,0.0,2.0,90,0.00,,,0.09,,2013-07-09 05:33:00,
2013-07-09 01:42:00,75.0,72.0,29.93,West,267,0.0,2.0,90,0.00,,,0.09,,2013-07-09 05:42:00,
2013-07-09 01:52:00,75.0,72.0,29.93,WSW,258,0.0,2.0,90,0.00,,,0.09,,2013-07-09 05:52:00,
2013-07-09 02:01:00,75.0,72.0,29.92,West,261,0.0,2.0,90,0.00,,,0.09,,2013-07-09 06:01:00,
2013-07-09 02:11:00,75.0,72.0,29.92,West,261,0.0,2.0,90,0.00,,,0.09,,2013-07-09 06:11:00,
2013-07-09 02:22:00,75.0,72.0,29.93,West,274,0.0,2.0,90,0.00,,,0.09,,2013-07-09 06:22:00,
2013-07-09 02:43:00,75.0,72.0,29.93,WSW,255,0.0,4.0,91,0.00,,,0.09,,2013-07-09 06:43:00,
2013-07-09 02:53:00,75.0,72.0,29.93,WSW,257,0.0,3.0,91,0.00,,,0.09,,2013-07-09 06:53:00,
2013-07-09 03:02:00,75.0,72.0,29.93,WSW,257,1.0,3.0,91,0.00,,,0.09,,2013-07-09 07:02:00,
2013-07-09 03:12:00,75.0,72.0,29.93,WSW,257,1.0,3.0,91,0.00,,,0.09,,2013-07-09 07:12:00,
2013-07-09 03:22:00,75.0,73.0,29.93,WSW,257,0.0,3.0,92,0.00,,,0.09,,2013-07-09 07:22:00,
2013-07-09 03:34:00,74.0,72.0,29.93,WSW,257,0.0,1.0,92,0.00,,,0.09,,2013-07-09 07:34:00,
2013-07-09 03:43:00,74.0,72.0,29.93,WSW,257,0.0,1.0,92,0.00,,,0.09,,2013-07-09 07:43:00,
2013-07-09 03:53:00,74.0,72.0,29.93,WSW,257,0.0,1.0,92,0.00,,,0.09,,2013-07-09 07:53:00,
2013-07-09 04:01:00,74.0,72.0,29.93,WSW,257,0.0,1.0,93,0.00,,,0.09,,2013-07-09 08:01:00,
2013-07-09 04:11:00,74.0,72.0,29.93,WSW,257,0.0,1.0,93,0.00,,,0.09,,2013-07-09 08:11:00,
2013-07-09 04:22:00,74.0,72.0,29.93,WSW,257,0.0,1.0,93,0.00,,,0.09,,2013-07-09 08:22:00,
2013-07-09 04:33:00,74.0,72.0,29.93,WSW,257,0.0,1.0,93,0.00,,,0.09,,2013-07-09 08:33:00,
2013-07-09 04:43:00,74.0,72.0,29.93,WSW,257,0.0,1.0,93,0.00,,,0.09,,2013-07-09 08:43:00,
2013-07-09 04:52:00,74.0,72.0,29.93,WSW,257,0.0,1.0,94,0.00,,,0.09,,2013-07-09 08:52:00,
2013-07-09 05:02:00,74.0,72.0,29.93,WSW,257,0.0,2.0,94,0.00,,,0.09,,2013-07-09 09:02:00,
2013-07-09 05:12:00,74.0,72.0,29.93,WSW,257,0.0,2.0,94,0.00,,,0.09,,2013-07-09 09:12:00,
2013-07-09 05:22:00,74.0,72.0,29.93,WSW,257,0.0,1.0,94,0.00,,,0.09,,2013-07-09 09:22:00,
2013-07-09 05:42:00,73.0,71.0,29.94,WSW,257,0.0,1.0,94,0.00,,,0.09,,2013-07-09 09:42:00,
2013-07-09 05:53:00,73.0,71.0,29.93,WSW,257,0.0,1.0,95,0.00,,,0.09,,2013-07-09 09:53:00,
2013-07-09 06:01:00,73.0,71.0,29.93,WSW,257,0.0,1.0,95,0.00,,,0.09,,2013-07-09 10:01:00,
2013-07-09 06:11:00,73.0,71.0,29.93,WSW,257,0.0,1.0,95,0.00,,,0.09,,2013-07-09 10:11:00,
2013-07-09 06:22:00,73.0,71.0,29.93,WSW,257,0.0,1.0,95,0.00,,,0.09,,2013-07-09 10:22:00,
2013-07-09 06:33:00,73.0,71.0,29.93,WSW,257,0.0,1.0,95,0.00,,,0.09,,2013-07-09 10:33:00,
2013-07-09 06:42:00,73.0,71.0,29.94,WSW,257,0.0,1.0,95,0.00,,,0.09,,2013-07-09 10:42:00,
2013-07-09 06:52:00,73.0,71.0,29.94,WSW,257,0.0,1.0,95,0.00,,,0.09,,2013-07-09 10:52:00,
2013-07-09 07:01:00,73.0,71.0,29.94,WSW,257,0.0,1.0,95,0.00,,,0.09,,2013-07-09 11:01:00,
2013-07-09 07:11:00,73.0,71.0,29.93,WSW,257,0.0,0.0,95,0.00,,,0.09,,2013-07-09 11:11:00,
2013-07-09 07:22:00,72.0,70.0,29.94,WSW,257,0.0,0.0,95,0.00,,,0.09,,2013-07-09 11:22:00,
2013-07-09 07:42:00,73.0,72.0,29.93,WSW,257,0.0,1.0,96,0.00,,,0.09,,2013-07-09 11:42:00,
2013-07-09 07:53:00,73.0,72.0,29.94,WSW,257,0.0,1.0,96,0.00,,,0.09,,2013-07-09 11:53:00,
2013-07-09 08:11:00,74.0,73.0,29.95,WSW,257,0.0,2.0,96,0.00,,,0.09,,2013-07-09 12:11:00,
2013-07-09 08:22:00,74.0,73.0,29.94,WSW,257,0.0,1.0,96,0.00,,,0.09,,2013-07-09 12:22:00,
2013-07-09 08:33:00,74.0,73.0,29.94,WSW,257,0.0,1.0,96,0.00,,,0.09,,2013-07-09 12:33:00,
2013-07-09 08:43:00,75.0,73.0,29.94,WSW,257,0.0,3.0,95,0.00,,,0.09,,2013-07-09 12:43:00,
2013-07-09 08:52:00,75.0,73.0,29.94,WSW,257,0.0,3.0,95,0.00,,,0.09,,2013-07-09 12:52:00,
2013-07-09 09:11:00,77.0,75.0,29.94,SW,236,0.0,3.0,94,0.00,,,0.09,,2013-07-09 13:11:00,
2013-07-09 09:22:00,77.0,75.0,29.94,SW,236,0.0,3.0,94,0.00,,,0.09,,2013-07-09 13:22:00,
2013-07-09 09:33:00,77.0,75.0,29.95,WSW,251,0.0,2.0,93,0.00,,,0.09,,2013-07-09 13:33:00,
2013-07-09 09:43:00,79.0,76.0,29.95,WNW,298,0.0,2.0,90,0.00,,,0.09,,2013-07-09 13:43:00,
2013-07-09 09:53:00,79.0,76.0,29.95,WNW,298,0.0,2.0,90,0.00,,,0.09,,2013-07-09 13:53:00,
2013-07-09 10:01:00,79.0,75.0,29.95,WSW,238,0.0,3.0,88,0.00,,,0.09,,2013-07-09 14:01:00,
2013-07-09 10:11:00,81.0,77.0,29.94,WSW,240,1.0,3.0,87,0.00,,,0.09,,2013-07-09 14:11:00,
2013-07-09 10:34:00,82.0,77.0,29.94,WSW,251,0.0,3.0,85,0.00,,,0.09,,2013-07-09 14:34:00,
2013-07-09 10:43:00,82.0,76.0,29.94,SW,228,1.0,4.0,82,0.00,,,0.09,,2013-07-09 14:43:00,
2013-07-09 10:53:00,82.0,76.0,29.94,SW,228,1.0,4.0,82,0.00,,,0.09,,2013-07-09 14:53:00,
2013-07-09 11:02:00,83.0,76.0,29.93,WSW,243,1.0,4.0,79,0.00,,,0.09,,2013-07-09 15:02:00,
2013-07-09 11:22:00,84.0,76.0,29.93,SW,231,2.0,5.0,78,0.00,,,0.09,,2013-07-09 15:22:00,
2013-07-09 11:33:00,84.0,77.0,29.93,WSW,246,1.0,5.0,80,0.00,,,0.09,,2013-07-09 15:33:00,
2013-07-09 12:02:00,85.0,77.0,29.93,West,263,0.0,3.0,76,0.00,,,0.09,,2013-07-09 16:02:00,
2013-07-09 12:22:00,86.0,77.0,29.93,SW,228,3.0,5.0,75,0.00,,,0.09,,2013-07-09 16:22:00,
2013-07-09 12:34:00,86.0,78.0,29.92,SW,225,2.0,6.0,77,0.00,,,0.09,,2013-07-09 16:34:00,
2013-07-09 12:43:00,86.0,78.0,29.93,WSW,238,2.0,5.0,77,0.00,,,0.09,,2013-07-09 16:43:00,
2013-07-09 12:52:00,86.0,78.0,29.93,WSW,238,2.0,5.0,77,0.00,,,0.09,,2013-07-09 16:52:00,
2013-07-09 13:02:00,86.0,77.0,29.92,SW,236,3.0,5.0,74,0.00,,,0.09,,2013-07-09 17:02:00,
2013-07-09 13:11:00,86.0,77.0,29.92,SW,236,3.0,5.0,74,0.00,,,0.09,,2013-07-09 17:11:00,
2013-07-09 13:22:00,86.0,77.0,29.92,SW,236,3.0,5.0,74,0.00,,,0.09,,2013-07-09 17:22:00,
2013-07-09 13:35:00,87.0,77.0,29.91,West,269,3.0,9.0,73,0.00,,,0.09,,2013-07-09 17:35:00,
2013-07-09 14:02:00,87.0,76.0,29.91,WSW,243,4.0,8.0,70,0.00,,,0.09,,2013-07-09 18:02:00,
2013-07-09 14:11:00,87.0,75.0,29.90,WSW,257,5.0,10.0,68,0.00,,,0.09,,2013-07-09 18:11:00,
2013-07-09 14:32:00,87.0,77.0,29.89,SSW,213,3.0,9.0,72,0.00,,,0.08,,2013-07-09 18:32:00,
2013-07-09 14:43:00,88.0,77.0,29.89,SW,218,3.0,6.0,71,0.00,,,0.08,,2013-07-09 18:43:00,
2013-07-09 14:52:00,88.0,77.0,29.89,SW,218,3.0,6.0,71,0.00,,,0.08,,2013-07-09 18:52:00,
2013-07-09 15:01:00,87.0,76.0,29.90,WSW,254,3.0,8.0,69,0.00,,,0.08,,2013-07-09 19:01:00,
2013-07-09 15:22:00,85.0,75.0,29.90,SW,235,2.0,6.0,71,0.00,,,0.08,,2013-07-09 19:22:00,
2013-07-09 15:33:00,82.0,73.0,29.91,NNW,335,1.0,9.0,74,0.00,,,0.02,,2013-07-09 19:33:00,
2013-07-09 15:52:00,78.0,73.0,29.91,NW,311,1.0,11.0,85,0.07,,,0.09,,2013-07-09 19:52:00,
2013-07-09 16:02:00,76.0,73.0,29.90,WNW,288,0.0,3.0,90,0.08,,,0.10,,2013-07-09 20:02:00,
2013-07-09 16:22:00,75.0,73.0,29.92,NNW,331,0.0,2.0,92,0.09,,,0.11,,2013-07-09 20:22:00,
2013-07-09 16:32:00,75.0,73.0,29.91,NNW,331,0.0,1.0,93,0.10,,,0.12,,2013-07-09 20:32:00,
2013-07-09 16:43:00,75.0,73.0,29.91,NNW,331,0.0,1.0,94,0.03,,,0.12,,2013-07-09 20:43:00,
2013-07-09 16:52:00,75.0,73.0,29.91,NNW,331,0.0,1.0,94,0.03,,,0.12,,2013-07-09 20:52:00,
2013-07-09 17:01:00,76.0,74.0,29.90,WNW,298,0.0,2.0,94,0.02,,,0.12,,2013-07-09 21:01:00,
2013-07-09 17:11:00,76.0,74.0,29.89,WNW,298,0.0,1.0,94,0.01,,,0.12,,2013-07-09 21:11:00,
2013-07-09 17:32:00,77.0,75.0,29.89,WNW,298,0.0,1.0,94,0.00,,,0.11,,2013-07-09 21:32:00,
2013-07-09 17:42:00,78.0,75.0,29.88,South,188,0.0,2.0,92,0.00,,,0.11,,2013-07-09 21:42:00,
2013-07-09 17:52:00,78.0,75.0,29.88,South,188,0.0,2.0,92,0.00,,,0.11,,2013-07-09 21:52:00,
2013-07-09 18:01:00,79.0,76.0,29.87,SSW,196,0.0,2.0,92,0.00,,,0.11,,2013-07-09 22:01:00,
2013-07-09 18:11:00,80.0,76.0,29.85,South,182,0.0,3.0,89,0.00,,,0.11,,2013-07-09 22:11:00,
2013-07-09 18:33:00,81.0,77.0,29.85,SW,236,2.0,4.0,87,0.00,,,0.11,,2013-07-09 22:33:00,
2013-07-09 18:42:00,81.0,75.0,29.85,WSW,241,0.0,6.0,83,0.00,,,0.11,,2013-07-09 22:42:00,
2013-07-09 18:53:00,81.0,75.0,29.85,WSW,241,0.0,6.0,83,0.00,,,0.11,,2013-07-09 22:53:00,
2013-07-09 19:02:00,81.0,76.0,29.85,WSW,241,0.0,2.0,85,0.00,,,0.11,,2013-07-09 23:02:00,
2013-07-09 19:12:00,81.0,76.0,29.85,WSW,240,1.0,3.0,85,0.00,,,0.11,,2013-07-09 23:12:00,
2013-07-09 19:22:00,81.0,76.0,29.85,WSW,240,1.0,3.0,85,0.00,,,0.11,,2013-07-09 23:22:00,
2013-07-09 19:33:00,81.0,75.0,29.84,WSW,240,0.0,3.0,83,0.00,,,0.11,,2013-07-09 23:33:00,
2013-07-09 19:43:00,81.0,75.0,29.84,WSW,240,0.0,3.0,83,0.00,,,0.11,,2013-07-09 23:43:00,
2013-07-09 19:53:00,81.0,76.0,29.84,WSW,240,0.0,2.0,84,0.00,,,0.11,,2013-07-09 23:53:00,
2013-07-09 20:01:00,81.0,76.0,29.84,WSW,240,0.0,2.0,84,0.00,,,0.11,,2013-07-10 00:01:00,
2013-07-09 20:11:00,80.0,75.0,29.84,WSW,240,1.0,3.0,85,0.00,,,0.11,,2013-07-10 00:11:00,
2013-07-09 20:22:00,80.0,75.0,29.84,WSW,240,1.0,3.0,85,0.00,,,0.11,,2013-07-10 00:22:00,
2013-07-09 20:33:00,80.0,75.0,29.84,WSW,240,0.0,1.0,86,0.00,,,0.11,,2013-07-10 00:33:00,
2013-07-09 20:42:00,80.0,75.0,29.84,WSW,240,0.0,1.0,86,0.00,,,0.11,,2013-07-10 00:42:00,
2013-07-09 20:52:00,80.0,76.0,29.84,WSW,240,0.0,0.0,88,0.00,,,0.11,,2013-07-10 00:52:00,
2013-07-09 21:01:00,80.0,76.0,29.84,WSW,240,0.0,0.0,88,0.00,,,0.11,,2013-07-10 01:01:00,
2013-07-09 21:11:00,80.0,76.0,29.84,WSW,240,0.0,0.0,88,0.00,,,0.11,,2013-07-10 01:11:00,
2013-07-09 21:22:00,80.0,76.0,29.84,WSW,240,0.0,0.0,88,0.00,,,0.11,,2013-07-10 01:22:00,
2013-07-09 21:33:00,79.0,75.0,29.84,WSW,240,0.0,0.0,89,0.00,,,0.11,,2013-07-10 01:33:00,
2013-07-09 21:43:00,79.0,76.0,29.84,WSW,240,0.0,0.0,90,0.00,,,0.11,,2013-07-10 01:43:00,
2013-07-09 21:53:00,79.0,76.0,29.84,WSW,240,0.0,0.0,90,0.00,,,0.11,,2013-07-10 01:53:00,
2013-07-09 22:02:00,79.0,76.0,29.83,WSW,240,0.0,0.0,90,0.00,,,0.11,,2013-07-10 02:02:00,
2013-07-09 22:11:00,78.0,75.0,29.84,WSW,240,0.0,0.0,91,0.00,,,0.11,,2013-07-10 02:11:00,
2013-07-09 22:34:00,78.0,75.0,29.84,WSW,240,0.0,1.0,91,0.00,,,0.10,,2013-07-10 02:34:00,
2013-07-09 23:01:00,78.0,76.0,29.84,SSW,205,0.0,1.0,93,0.00,,,0.10,,2013-07-10 03:01:00,
2013-07-09 23:12:00,78.0,75.0,29.84,SW,226,1.0,3.0,92,0.00,,,0.10,,2013-07-10 03:12:00,
2013-07-09 23:32:00,78.0,75.0,29.84,SW,227,1.0,4.0,91,0.00,,,0.10,,2013-07-10 03:32:00,
2013-07-09 23:43:00,78.0,75.0,29.84,SW,218,1.0,4.0,91,0.00,,,0.10,,2013-07-10 03:43:00,
2013-07-09 23:52:00,78.0,75.0,29.84,SW,218,1.0,4.0,91,0.00,,,0.10,,2013-07-10 03:52:00,